INMARSAT 5-F3

Last updated on Jan. 15, 2021, 6:31 a.m. UTC

1 40882U 15042A   21014.84542767  .00000043  00000-0  00000-0 0  9992
2 40882   0.0179  49.1455 0000213 330.5760 218.7082  1.00273444 19721
UTC
Height (km)
Latitude
Longitude
Inclination
Orbital Period
UTC large
Height (km)
Speed (km/s)
/
Latitude / Longitude
Inclination (degrees)
Orbital Period (minutes)
Azimuth
Elevation
Range (km)
Doppler Factor
iOS Compass Heading
iOS Angle

Next 30 passes for location: Hong Kong

Rise time Rise Azimuth (degrees) Set time Set Azimuth (degrees) Duration Max altitude (degrees)

No matching passes for this satellites